Printer-friendly version
Follow the MPC on Twitter Follow the MPC on Facebook The MPC blog
Minor Planet Center

MPEC 2007-O19 : COMET C/2006 S3 (LONEOS)

The following Minor Planet Electronic Circular may be linked-to from your own Web pages, but must not otherwise be redistributed electronically.

A form allowing access to any MPEC is at the bottom of this page.


Read MPEC 2007-O18 Read MPEC 2007-O20


M.P.E.C. 2007-O19                                Issued 2007 July 19, 15:04 UT

     The Minor Planet Electronic Circulars contain information on unusual
         minor planets and routine data on comets.  They are published
   on behalf of Commission 20 of the International Astronomical Union by the
          Minor Planet Center, Smithsonian Astrophysical Observatory,
                          Cambridge, MA 02138, U.S.A.

             Prepared using the Tamkin Foundation Computer Network

                              MPC@CFA.HARVARD.EDU
          URL http://www.cfa.harvard.edu/iau/mpc.html  ISSN 1523-6714

                           COMET C/2006 S3 (LONEOS)

Observations:
    CK06S030  C2007 07 14.02723 00 02 59.80 +10 04 50.0          19.0 T EO019215
    CK06S030  C2007 07 15.02540 00 02 49.15 +10 04 44.5          19.5 N EO019157
    CK06S030  C2007 07 15.06708 00 02 48.72 +10 04 43.2          19.6 N EO019157
    CK06S030  C2007 07 16.02545 00 02 38.20 +10 04 35.4          19.4 N EO019157
    CK06S030  C2007 07 16.06711 00 02 37.74 +10 04 34.7          19.7 N EO019157

Observer details:
157 Frasso Sabino.  Observers R. Haver, P. Caponnetto, R. Gorelli.  Measurer
    R. Haver.  0.37-m f/5.8 Cassegrain + CCD.
215 Buchloe.  Observer W. Hasubick.  0.44-m f/4.6 reflector + CCD.

Orbital elements:
    C/2006 S3 (LONEOS)
Epoch 2012 Apr. 23.0 TT = JDT 2456040.5
T 2012 Apr. 14.47457 TT                                 MPC
q   5.1274168            (2000.0)            P               Q
z  -0.0009005      Peri.  140.11788     -0.21535595     -0.96497401
 +/-0.0002445      Node    38.37099     -0.94619150     +0.24414255
e   1.0046172      Incl.  166.03330     -0.24154390     -0.09601863
Residuals in seconds of arc
060829 703  1.1-  0.6+    060920 J77  0.3-  0.4-    060927 213  0.1-  0.2-
060829 703  0.5+  1.6-    060921 J77  0.7-  0.9+    060927 213  0.8+  0.2-
060829 703  0.6+  1.6-    060921 J77  0.1+  0.3-    060928 204  0.8-  0.4-
060917 703  0.3-  0.0     060921 J95  0.6+  1.2+    060928 118  0.6-  0.0
060917 703  0.5-  1.1+    060921 J95  0.9+  0.5+    060928 118  0.2+  0.6-
060917 703  0.9-  0.6+    060921 J77  1.3-  0.6+    060930 J67  1.5-  1.0-
060917 703  0.5+  1.4-    060921 J77  0.3-  0.1-    061012 673  0.6-  0.8-
060919 699  0.8+  0.4+    060921 J77  2.0-  1.0-    061012 673  0.2-  0.1+
060919 699  1.0+  0.1-    060921 850  0.2-  1.7+    061012 673  0.8-  0.5-
060919 699  0.9-  0.9+    060921 850  0.0   0.4+    061012 673  1.7-  0.5-
060919 688  0.1-  0.2+    060921 850  0.0   0.6-    061013 585  1.7+  0.5+
060919 688  0.5-  0.1-    060921 673  0.0   1.0-    061014 170  1.4+  1.0-
060919 J95  0.1-  0.3-    060921 673  0.4-  1.1-    061014 170  0.3-  0.7-
060920 J95  0.9+  0.1+    060921 673  0.1+  0.7-    061014 170  0.6-  0.7-
060920 448  1.0-  1.2+    060921 673  0.5-  0.7-    061016 215  0.3-  0.4-
060920 693  0.7-  0.0     060922 J95  0.6+  0.9+    061025 561  1.3+  0.1+
060920 693  0.7-  0.1-    060922 J95  0.0   1.2-    061025 561  0.9+  1.3+
060920 693  0.8-  0.2-    060923 415  0.7-  0.4-    061028 213  1.2+  0.3-
060920 703  0.6+  0.5+    060923 585  1.0-  0.5-    061029 213  0.7+  0.0
060920 703  0.3-  0.7+    060923 461  0.5-  0.1-    061108 213  0.1-  0.3+
060920 703  0.8+  0.9+    060923 461  0.5-  0.1-    061108 213  0.3-  0.4+
060920 673  0.8-  0.0     060924 246  0.0   0.2-    061110 673  0.8-  0.2+
060920 703  0.3-  0.7+    060924 246  0.0   0.6+    061110 673  0.4-  0.1+
060920 673  0.3-  0.4-    060924 246  0.3-  0.9+    061110 673  0.6-  0.1+
060920 673  0.3-  0.5-    060924 246  0.3-  1.1+    061110 673  0.3-  0.1+
060920 673  0.5-  0.6-    060924 246  0.9+  0.4+    061213 215  0.2+  0.0
060920 012  0.2+  0.6-    060924 246  0.6+  0.2+    070714 215  0.8+  0.8-
060920 012  1.2+  0.7-    060924 246  0.3+  0.1+    070715 157  0.1-  0.5+
060920 012  0.3+  0.2-    060925 213  0.4-  0.8-    070715 157  0.3+  0.4-
060920 012  0.4-  0.7+    060925 213  0.8-  0.9-    070716 157  0.5-  0.5+
060920 012  0.7-  0.3-    060927 213  0.2-  0.1+    070716 157  0.4-  0.2+

     The "original" and "future" barycentric values of 1/a are -0.000210
and -0.000255 (+/- 0.000244) AU^-1, respectively.

Brian G. Marsden             (C) Copyright 2007 MPC           M.P.E.C. 2007-O19

Read MPEC 2007-O18 Read MPEC 2007-O20


MPEC number:

Enter an MPEC number in one of the following forms:

  • 1997-B01 (the full form)
  • J97B01 (the packed version of the full form)
  • B01 (the abbreviated form)

Valid HTML 4.01!